CAPE
0 0 0 0 0 0 0 0 0 0 0 0 0 0 0 0 0 0 0 0 0 0 0 0 0 0 0 0 0 0 0 0 0 0 0 0 0 0 1 251 485 696 567 720 1468
0 0 0 0 0 0 0 0 0 0 0 0 0 0 0 0 0 0 0 0 0 0 0 0 0 0 0 0 0 0 0 0 0 0 0 0 10 0 3 5 40 694 565 1038 1220
0 0 0 0 0 0 0 0 0 0 0 0 0 0 0 0 0 0 0 0 0 0 0 0 0 0 0 0 0 0 0 0 0 0 0 0 13 0 0 0 0 545 509 1336 1036
0 0 0 0 0 0 0 0 0 0 0 0 0 0 0 0 0 0 0 0 0 0 0 0 0 0 0 0 0 0 0 0 0 0 0 0 0 0 6 5 281 758 557 1304 1051
0 0 0 0 0 0 0 0 0 0 0 0 0 0 0 0 0 0 0 0 0 0 0 0 0 0 0 0 0 0 0 0 0 0 0 0 0 0 7 346 851 847 1163 1204 1003
0 0 0 0 0 0 0 0 0 0 0 0 0 0 0 0 0 0 0 0 0 0 0 0 0 0 0 0 0 0 0 0 0 0 0 0 0 0 6 550 485 820 1246 1318 1109
0 0 0 0 0 0 0 0 0 0 0 0 0 0 0 0 0 0 0 0 0 0 0 0 0 0 0 0 0 0 0 0 0 0 0 0 0 0 101 601 243 164 791 974 402
0 0 0 0 0 0 0 0 0 0 0 0 0 0 0 0 0 0 0 0 0 0 0 0 0 0 0 0 0 0 0 0 0 0 0 0 0 0 77 472 319 70 61 374 270
0 0 0 0 0 0 0 0 0 0 0 0 0 0 0 0 0 0 0 0 0 0 0 0 0 0 0 0 0 0 0 0 0 0 0 0 0 0 85 352 209 160 79 73 64
0 0 0 0 0 0 0 0 0 0 0 0 0 0 0 0 0 0 0 0 0 0 0 0 0 0 0 0 0 0 0 0 0 0 0 0 0 0 2 199 138 108 70 42 75
0 0 0 0 0 0 0 0 0 0 0 0 0 0 0 0 0 0 0 0 0 0 0 0 0 0 0 0 0 0 0 0 0 0 0 0 0 0 0 0 0 1 31 47 102
0 0 0 0 0 0 0 0 0 0 0 0 0 0 0 0 0 0 0 0 0 0 0 0 0 0 0 0 0 0 0 0 0 0 0 0 0 0 0 0 0 0 29 95 163
0 0 0 0 0 0 0 0 0 0 0 0 0 0 0 0 0 0 0 0 0 0 0 0 0 0 0 0 0 0 0 0 0 0 0 0 0 4 2 1 17 0 4 140 246
0 0 0 0 0 0 0 0 0 0 0 0 0 0 0 0 0 0 0 0 0 0 0 0 0 0 0 0 0 0 0 0 0 0 0 0 0 0 0 1 62 99 105 302 325
0 0 0 0 0 0 0 0 0 0 0 0 0 0 0 0 0 0 0 0 0 0 0 0 0 0 0 0 0 0 0 0 0 0 0 0 0 0 0 0 0 218 261 274 321
0 0 0 0 0 0 0 0 0 0 0 0 0 0 0 0 0 0 0 0 0 0 0 0 0 0 0 0 0 0 0 0 0 0 0 0 0 0 0 0 20 150 263 218 257
0 0 0 0 0 0 0 0 0 0 0 0 0 0 0 0 0 0 0 0 0 0 0 0 0 0 0 0 0 0 0 0 0 0 0 0 0 0 0 0 65 163 245 209 156
0 0 0 0 0 0 0 0 0 0 0 0 0 0 0 0 0 0 0 0 0 0 0 0 0 0 0 0 0 0 0 0 0 0 0 0 0 0 0 8 64 70 105 13 0
0 0 0 0 0 0 0 0 0 0 0 0 0 0 0 0 0 0 0 0 0 0 0 0 0 0 0 0 0 0 0 0 0 0 0 0 0 0 0 0 0 0 0 0 0
0 0 0 0 0 0 0 0 0 0 0 0 0 0 0 0 0 0 0 0 0 0 0 0 0 0 0 0 0 0 0 0 0 0 0 0 0 0 0 0 0 0 0 0 0
0 0 0 0 0 0 0 0 0 0 0 0 0 0 0 0 0 0 0 0 0 0 0 0 0 0 0 0 0 0 0 0 0 0 0 0 0 0 0 0 0 0 0 0 0
0 0 0 0 0 0 0 0 0 0 0 0 0 0 0 0 0 0 0 0 0 0 0 0 0 0 0 0 0 0 0 0 0 0 0 0 0 0 0 0 0 0 0 0 0
0 0 0 0 0 0 0 0 0 0 0 0 0 0 0 0 0 0 0 0 0 0 0 0 0 0 0 0 0 0 0 0 0 0 0 0 0 0 0 0 0 0 0 0 0
0 0 0 0 0 0 0 0 0 0 0 0 0 0 0 0 0 0 0 0 0 0 0 0 0 0 0 0 0 0 0 0 0 0 0 0 0 0 0 0 0 0 0 0 0
0 0 0 0 0 0 0 0 0 0 0 0 0 0 0 0 0 0 0 0 0 0 0 0 0 0 0 0 0 0 0 0 0 0 0 0 0 0 0 0 0 0 0 0 0
0 0 0 0 0 0 0 0 0 0 0 0 0 0 0 0 0 0 0 0 0 0 0 0 0 0 0 0 0 0 0 0 0 0 0 0 0 0 0 0 0 0 0 0 0
0 0 0 0 0 0 0 0 0 0 0 0 0 0 0 0 0 0 0 0 0 0 0 0 0 0 0 0 0 0 0 0 0 0 0 0 0 0 0 0 0 0 0 0 0
CIN
0 0 0 0 0 0 0 0 0 0 0 0 0 0 0 0 0 0 0 0 0 0 0 0 0 0 0 0 0 0 0 0 0 0 0 0 0 0 -38 -110 -120 -113 -117 -123 -179
0 0 0 0 0 0 0 0 0 0 0 0 0 0 0 0 0 0 0 0 0 0 0 0 0 0 0 0 0 0 0 0 0 0 0 0 -122 -1 -98 -32 -159 -74 -113 -135 -199
0 0 0 0 0 0 0 0 0 0 0 0 0 0 0 0 0 0 0 0 0 0 0 0 0 0 0 0 0 0 0 0 0 0 0 0 -135 -25 0 0 0 -73 -115 -121 -190
0 0 0 0 0 0 0 0 0 0 0 0 0 0 0 0 0 0 0 0 0 0 0 0 0 0 0 0 0 0 0 0 0 0 0 0 0 0 -82 -11 -74 -98 -113 -142 -174
0 0 0 0 0 0 0 0 0 0 0 0 0 0 0 0 0 0 0 0 0 0 0 0 0 0 0 0 0 0 0 0 0 0 0 0 0 0 -22 -93 -71 -109 -120 -125 -151
0 0 0 0 0 0 0 0 0 0 0 0 0 0 0 0 0 0 0 0 0 0 0 0 0 0 0 0 0 0 0 0 0 0 0 0 0 0 -33 -92 -114 -135 -123 -136 -150
0 0 0 0 0 0 0 0 0 0 0 0 0 0 0 0 0 0 0 0 0 0 0 0 0 0 0 0 0 0 0 0 0 0 0 0 0 0 -78 -110 -190 -260 -183 -165 -310
0 0 0 0 0 0 0 0 0 0 0 0 0 0 0 0 0 0 0 0 0 0 0 0 0 0 0 0 0 0 0 0 0 0 0 0 0 0 -167 -118 -141 -297 -351 -285 -404
0 0 0 0 0 0 0 0 0 0 0 0 0 0 0 0 0 0 0 0 0 0 0 0 0 0 0 0 0 0 0 0 0 0 0 0 0 0 -182 -110 -147 -219 -340 -431 -532
0 0 0 0 0 0 0 0 0 0 0 0 0 0 0 0 0 0 0 0 0 0 0 0 0 0 0 0 0 0 0 0 0 0 0 0 0 0 -49 -130 -171 -208 -276 -408 -488
0 0 0 0 0 0 0 0 0 0 0 0 0 0 0 0 0 0 0 0 0 0 0 0 0 0 0 0 0 0 0 0 0 0 0 0 0 0 0 0 0 -16 -286 -348 -471
0 0 0 0 0 0 0 0 0 0 0 0 0 0 0 0 0 0 0 0 0 0 0 0 0 0 0 0 0 0 0 0 0 0 0 0 0 0 0 -44 0 0 -266 -353 -471
0 0 0 0 0 0 0 0 0 0 0 0 0 0 0 0 0 0 0 0 0 0 0 0 0 0 0 0 0 0 0 0 0 0 0 0 0 -180 -233 -177 -347 0 -137 -414 -425
0 0 0 0 0 0 0 0 0 0 0 0 0 0 0 0 0 0 0 0 0 0 0 0 0 0 0 0 0 0 0 0 0 0 0 0 0 0 0 -174 -364 -434 -479 -451 -418
0 0 0 0 0 0 0 0 0 0 0 0 0 0 0 0 0 0 0 0 0 0 0 0 0 0 0 0 0 0 0 0 0 0 0 0 0 0 0 0 0 -339 -347 -348 -306
0 0 0 0 0 0 0 0 0 0 0 0 0 0 0 0 0 0 0 0 0 0 0 0 0 0 0 0 0 0 0 0 0 0 0 0 0 0 0 0 -309 -300 -242 -237 -208
0 0 0 0 0 0 0 0 0 0 0 0 0 0 0 0 0 0 0 0 0 0 0 0 0 0 0 0 0 0 0 0 0 0 0 0 0 0 0 0 -233 -227 -189 -183 -182
0 0 0 0 0 0 0 0 0 0 0 0 0 0 0 0 0 0 0 0 0 0 0 0 0 0 0 0 0 0 0 0 0 0 0 0 0 0 0 -113 -216 -225 -227 -142 0
0 0 0 0 0 0 0 0 0 0 0 0 0 0 0 0 0 0 0 0 0 0 0 0 0 0 0 0 0 0 0 0 0 0 0 0 0 0 0 0 0 0 0 0 0
0 0 0 0 0 0 0 0 0 0 0 0 0 0 0 0 0 0 0 0 0 0 0 0 0 0 0 0 0 0 0 0 0 0 0 0 0 0 0 0 0 0 0 0 0
0 0 0 0 0 0 0 0 0 0 0 0 0 0 0 0 0 0 0 0 0 0 0 0 0 0 0 0 0 0 0 0 0 0 0 0 0 0 0 0 0 0 0 0 0
0 0 0 0 0 0 0 0 0 0 0 0 0 0 0 0 0 0 0 0 0 0 0 0 0 0 0 0 0 0 0 0 0 0 0 0 0 0 0 0 0 0 0 0 0
0 0 0 0 0 0 0 0 0 0 0 0 0 0 0 0 0 0 0 0 0 0 0 0 0 0 0 0 0 0 0 0 0 0 0 0 0 0 0 0 0 0 0 0 0
0 0 0 0 0 0 0 0 0 0 0 0 0 0 0 0 0 0 0 0 0 0 0 0 0 0 0 0 0 0 0 0 0 0 0 0 0 0 0 0 0 0 0 0 0
0 0 0 0 0 0 0 0 0 0 0 0 0 0 0 0 0 0 0 0 0 0 0 0 0 0 0 0 0 0 0 0 0 0 0 0 0 0 0 0 0 0 0 0 0
0 0 0 0 0 0 0 0 0 0 0 0 0 0 0 0 0 0 0 0 0 0 0 0 0 0 0 0 0 0 0 0 0 0 0 0 0 0 0 0 0 0 0 0 0
0 0 0 0 0 0 0 0 0 0 0 0 0 0 0 0 0 0 0 0 0 0 0 0 0 0 0 0 0 0 0 0 0 0 0 0 0 0 0 0 0 0 0 0 0
Wind_Speed
16 17 18 18 18 18 18 18 18 18 18 18 18 19 20 21 22 19 17 10 13 16 18 18 17 17 15 7 8 8 10 11 15 16 24 18 9 10 7 7 10 13 15 18 22
16 16 17 18 18 18 18 18 18 18 18 18 18 19 20 22 20 19 15 11 11 15 17 17 18 18 12 10 8 8 8 11 15 18 26 17 8 8 8 6 6 9 13 20 21
15 15 16 17 17 18 18 18 19 19 19 19 19 20 21 20 17 16 18 11 10 13 16 17 18 17 11 10 8 9 8 14 13 4 19 10 6 6 6 4 6 8 12 16 15
14 15 15 16 17 18 18 19 19 19 19 19 20 20 20 17 14 17 18 14 12 13 15 17 18 16 13 12 11 14 9 13 19 2 15 8 7 5 2 6 8 10 15 15 14
14 15 16 16 17 18 18 19 19 20 20 20 20 20 17 17 18 19 14 12 13 13 14 17 17 16 15 17 19 17 27 27 10 8 11 10 6 4 2 5 6 9 9 11 11
14 15 15 16 17 18 19 19 20 20 20 20 20 19 17 16 18 19 12 11 12 13 17 16 17 18 15 18 15 21 23 26 16 11 13 8 9 4 2 5 4 7 8 10 11
14 14 15 15 16 17 18 19 20 20 20 19 18 17 17 19 17 19 11 11 14 11 20 15 17 18 19 21 16 21 22 20 16 17 16 9 8 3 5 11 6 7 9 8 7
14 14 14 14 15 16 17 18 19 19 19 18 16 16 15 15 19 18 10 19 19 9 16 16 10 19 18 20 22 20 18 23 20 21 15 12 7 6 2 9 5 5 5 7 8
15 15 15 15 15 15 15 16 18 18 16 14 15 15 16 18 16 7 11 11 20 19 17 18 18 19 19 15 19 19 22 26 27 23 19 6 9 7 3 5 4 5 5 5 5
16 16 16 16 16 16 17 18 16 14 13 14 16 17 15 19 18 17 13 12 16 17 18 18 18 18 18 15 17 22 27 24 24 24 22 16 15 8 6 6 5 5 5 5 7
17 17 16 16 16 17 18 16 16 15 15 16 19 20 22 18 19 15 15 15 16 17 18 20 19 20 19 16 20 22 21 20 20 24 23 22 21 18 15 13 12 6 5 5 4
20 19 18 17 17 17 16 17 18 17 20 21 20 15 19 15 17 19 13 14 16 20 19 20 21 25 16 17 19 18 18 23 21 27 18 19 20 19 18 18 16 6 8 8 6
22 21 19 18 18 16 16 17 18 18 17 17 14 14 12 12 14 15 11 15 16 18 21 16 22 21 17 19 16 19 21 24 23 22 18 16 17 19 21 22 23 21 11 8 8
25 23 20 19 14 17 16 18 19 15 15 15 14 14 11 11 15 14 11 15 16 18 19 16 23 19 19 20 20 21 21 22 23 24 22 21 20 19 24 23 25 22 14 11 8
27 25 22 18 18 18 20 22 18 15 13 13 13 15 12 11 14 14 14 16 17 18 18 21 23 21 19 21 21 22 22 23 22 24 23 23 19 22 23 25 26 22 16 13 10
28 26 22 17 19 19 23 22 15 14 13 15 13 12 11 11 13 16 14 16 18 18 19 20 19 20 19 19 22 20 24 23 23 22 22 20 20 21 22 22 22 19 16 13 9
30 27 21 16 16 22 24 16 14 13 18 17 16 14 12 15 14 10 11 17 18 20 22 20 19 18 24 26 24 25 28 29 25 24 22 21 21 18 17 17 16 15 14 13 12
31 25 20 16 19 22 19 13 12 15 16 18 20 13 14 18 15 14 12 14 21 20 19 19 20 24 27 26 28 26 19 21 26 26 24 22 20 18 17 17 15 15 14 15 16
29 23 18 17 15 17 17 14 13 16 20 19 17 16 16 17 15 14 15 17 21 21 19 21 20 22 24 29 25 22 22 20 21 21 23 21 19 19 14 15 15 15 15 16 16
24 21 17 22 12 16 16 15 14 17 20 16 16 16 18 20 18 17 18 18 19 20 19 20 27 26 29 27 21 21 17 22 21 25 27 21 21 19 13 12 14 14 14 16 17
20 16 16 21 14 16 16 15 17 20 23 16 15 16 16 19 19 19 18 17 16 19 22 22 24 30 30 26 25 20 23 21 19 18 24 27 23 18 9 10 11 13 14 15 17
20 16 21 20 15 16 15 15 19 23 16 15 15 16 16 17 18 17 18 19 17 19 23 23 24 29 28 23 20 19 24 21 22 23 21 23 24 18 10 9 9 10 12 14 16
23 19 20 17 18 19 19 19 18 21 19 17 15 15 15 18 18 18 18 20 20 20 20 20 25 29 29 20 21 23 26 25 21 22 21 23 22 13 11 9 9 9 11 15 19
21 21 20 17 17 18 20 20 20 20 17 15 15 17 17 19 21 21 23 21 20 18 19 20 20 20 25 24 24 28 32 30 23 25 25 20 18 10 12 9 9 12 15 18 20
20 19 18 21 21 23 20 20 20 20 18 19 18 18 17 20 21 23 24 22 20 20 20 20 23 21 24 25 26 28 32 31 25 25 24 25 19 13 11 11 14 14 16 21 24
19 19 20 20 21 20 21 22 22 20 18 19 15 19 19 19 20 22 23 22 21 21 21 22 25 26 31 30 27 28 31 22 25 23 22 19 19 13 14 15 18 21 22 24 27
19 17 17 19 20 18 21 21 22 18 18 16 15 17 19 20 22 23 22 22 22 22 22 22 22 28 30 28 30 25 26 23 22 22 19 21 18 14 17 18 20 20 23 26 30
Wind_Direction
245 237 241 237 241 247 248 251 256 259 260 257 259 265 271 274 273 261 203 100 12 348 331 284 318 302 300 31 21 17 15 24 20 9 330 7 13 21 32 62 84 110 89 111 108
251 237 241 232 236 241 246 249 252 255 257 258 261 266 273 282 272 232 176 102 94 346 310 314 308 299 323 336 7 26 31 32 14 360 289 1 34 72 68 49 50 82 68 111 116
254 236 241 235 235 241 244 247 251 255 259 261 266 272 279 285 287 289 305 122 53 4 341 319 313 335 341 350 40 33 18 1 236 14 347 13 36 35 56 34 128 123 113 121 120
251 236 241 237 236 238 243 247 251 257 263 266 273 279 281 298 312 295 318 23 47 21 11 338 322 338 353 332 11 338 345 352 251 37 350 14 21 10 74 20 125 130 134 133 137
253 240 242 243 240 242 245 248 252 256 262 268 274 281 290 291 283 304 354 22 29 34 39 319 323 334 320 315 314 335 309 286 23 41 16 14 17 20 6 22 111 126 127 140 142
259 246 242 244 245 245 246 248 250 255 260 264 269 280 298 301 291 305 18 16 25 19 323 336 325 335 342 322 342 328 337 314 358 17 1 19 3 26 52 119 115 140 146 146 148
266 253 241 239 241 244 246 247 248 250 252 257 267 298 301 252 289 287 31 42 354 56 299 353 341 334 328 312 346 329 325 332 346 346 346 24 19 11 140 152 146 155 162 157 165
288 267 248 238 238 241 243 244 244 242 244 249 294 319 291 310 271 233 75 220 233 192 232 224 24 333 331 317 319 327 339 323 334 346 345 341 335 341 101 152 166 155 171 176 176
308 294 276 260 249 242 243 247 244 240 278 333 322 324 279 267 337 263 66 16 308 317 339 331 339 334 333 330 322 329 329 322 320 339 351 327 312 305 210 180 200 189 183 188 181
308 297 288 280 270 265 265 263 286 312 328 325 309 305 299 302 311 337 37 33 354 340 339 349 348 350 343 344 336 324 322 328 333 338 346 342 331 327 290 222 242 233 226 200 187
312 300 287 272 264 278 302 321 322 321 329 317 292 300 252 290 288 357 359 358 351 350 349 344 345 341 335 348 336 325 335 339 343 343 343 346 340 335 326 320 320 270 265 227 234
315 304 290 275 269 281 321 318 309 324 287 235 213 246 208 342 324 306 10 2 350 334 350 342 340 321 358 351 344 350 349 338 341 340 356 359 351 347 341 330 327 302 266 261 266
316 308 294 280 281 325 285 291 311 282 309 284 328 318 333 18 4 356 27 8 352 343 340 3 349 352 3 356 7 353 345 340 341 347 354 359 348 348 343 344 334 322 311 291 266
317 308 297 286 323 285 301 288 285 0 318 315 340 342 5 15 348 3 43 4 353 350 350 359 343 356 356 353 352 345 348 347 346 343 335 337 324 329 329 332 335 337 332 321 306
315 308 298 305 299 305 294 287 303 330 340 329 343 340 9 18 12 3 6 7 358 352 356 345 342 343 354 353 354 347 348 343 347 345 342 333 325 325 329 328 331 342 344 342 342
312 307 297 312 301 305 289 295 324 327 340 327 340 359 9 355 351 347 355 357 356 354 354 358 8 5 360 359 355 358 347 347 349 348 342 346 342 334 333 334 337 343 351 352 12
307 302 309 315 319 300 299 320 324 328 319 332 327 332 344 343 348 358 5 349 354 352 342 350 355 6 357 341 346 344 338 331 337 342 341 345 338 338 344 352 1 5 5 3 1
304 301 317 320 307 303 320 324 322 323 327 328 329 333 334 333 342 357 351 347 343 343 348 349 344 346 351 346 338 337 346 340 331 334 338 341 338 340 349 351 6 5 5 359 351
305 313 319 316 325 328 328 314 320 324 319 325 338 336 333 341 352 351 347 342 340 340 345 342 339 344 348 345 343 341 335 343 337 342 339 341 340 342 343 352 359 359 4 7 9
313 309 325 299 331 330 331 316 320 330 316 334 330 338 330 331 338 341 339 343 341 346 355 346 331 336 336 339 344 343 350 335 341 331 331 339 336 332 342 352 2 10 13 12 13
327 319 324 310 322 321 318 319 317 319 314 329 329 330 334 331 336 336 340 344 347 347 349 346 338 332 334 337 332 337 336 340 343 341 333 331 335 343 347 352 4 16 17 17 11
325 317 315 316 317 319 316 325 322 314 323 325 328 328 332 334 334 336 335 338 345 344 338 343 338 334 339 339 349 358 345 346 335 334 335 333 331 345 350 7 22 18 15 9 4
316 312 322 322 307 307 309 312 318 315 315 315 321 328 334 329 328 334 335 338 339 339 340 344 336 334 338 348 342 337 337 342 340 337 332 330 333 354 9 11 12 10 3 357 348
316 307 311 323 323 311 309 309 306 317 324 327 320 325 325 328 329 326 328 332 336 341 343 342 342 340 332 334 333 328 326 329 331 326 327 325 329 334 342 344 352 351 347 347 348
317 308 313 305 306 308 308 310 307 309 317 324 323 325 325 323 323 322 324 326 331 335 337 339 331 332 329 329 328 326 324 327 327 327 323 327 328 328 343 348 346 349 351 347 344
314 309 309 308 308 307 308 309 306 306 312 314 322 324 323 321 322 322 326 327 324 330 331 331 325 326 323 325 326 327 332 338 336 338 341 346 342 354 356 356 351 344 344 343 342
319 320 313 308 309 310 308 307 308 308 315 318 322 322 322 323 319 319 324 323 322 322 324 326 328 324 321 326 325 329 342 355 357 353 351 343 349 358 351 348 346 343 341 342 339